Home   Weather   Merida   Past weeks
Flag for Mexico

Past Weather in Merida, Yucatán, Mexico — Yesterday and Last 2 Weeks

Now
73 °F

Clear.


Feels Like: 74 °F
Forecast: 101 / 71 °F
Wind: 12 mph from East

Location: Aerop. Internacional Merida - Yuc

Current Time: Mar 28, 2020 at 4:02:38 am

Latest Report: Mar 28, 2020 at 2:47 am


Visibility: 7 mi

Pressure: 29.92 "Hg

Humidity: 78%

Dew Point: 66 °F

Location of MeridaLocation

Past Weather in Merida — Graph

°F

Merida Temperature Yesterday

Maximum temperature yesterday: 100 °F (at 1:44 pm)
Minimum temperature yesterday: 73 °F (at 4:44 am)
Average temperature yesterday: 86 °F

High & Low Weather Summary for the Past Weeks

 TemperatureHumidityPressure
High100 °F (Mar 24, 2:40 pm)94% (Mar 16, 6:00 am)30.40 "Hg (Mar 16, 6:00 am)
Low68 °F (Mar 13, 3:44 am)20% (Mar 26, 2:44 pm)29.75 "Hg (Mar 27, 4:44 pm)
Average83 °F59%30.02 "Hg
* Reported Mar 13 2:44 am — Mar 28 2:47 am, Merida. Weather by CustomWeather, © 2020

Note: Actual official high and low records may vary slightly from our data, if they occured in-between our weather recording intervals... More about our weather records

Merida Weather History for the Previous 24 Hours

Scroll right to see more
 ConditionsComfort  
Time TempWeatherWind HumidityBarometerVisibility
2:47 am
Sat, Mar 28
73 °FClear.12 mph78%29.92 "Hg7 mi
1:46 am75 °FClear.14 mph78%29.88 "Hg7 mi
12:46 am77 °FClear.16 mph74%29.89 "Hg7 mi
11:48 pm
Fri, Mar 27
79 °FClear.17 mph65%29.91 "Hg7 mi
10:48 pm81 °FClear.15 mph62%29.88 "Hg7 mi
9:47 pm84 °FClear.18 mph51%29.86 "Hg7 mi
8:44 pm88 °FClear.16 mph46%29.84 "Hg7 mi
7:47 pm88 °FClear.6 mph49%29.81 "Hg7 mi
6:45 pm88 °FClear.8 mph49%29.79 "Hg7 mi
5:44 pm99 °FSunny.14 mph25%29.78 "Hg7 mi
4:44 pm100 °FSunny.15 mph22%29.75 "Hg7 mi
3:44 pm100 °FSunny.12 mph22%29.76 "Hg7 mi
2:46 pm100 °FSunny.10 mph21%29.79 "Hg7 mi
1:44 pm100 °FSunny.14 mph22%29.81 "Hg7 mi
12:44 pm99 °FSunny.16 mph27%29.84 "Hg7 mi
11:45 am95 °FSunny.15 mph32%29.88 "Hg7 mi
10:45 am91 °FSunny.8 mph44%29.90 "Hg7 mi
9:44 am88 °FSunny.17 mph52%29.92 "Hg7 mi
8:44 am82 °FScattered clouds.18 mph62%29.93 "Hg7 mi
7:44 am79 °FPassing clouds.18 mph79%29.92 "Hg7 mi
6:44 am73 °FSunny.15 mph89%29.91 "Hg7 mi
5:44 am73 °FClear.9 mph94%29.90 "Hg7 mi
4:44 am73 °FPassing clouds.12 mph89%29.87 "Hg7 mi
Weather by CustomWeather, © 2020

See weather overview

Advertising